Weather in Vepryk

Ukraine / Poltava Region     50°22′27″N   34°11′01″E
temp.,
°C
wind,
m/s
gust,
m/s
humid.,
%
clouds,
%
prec.,
mm/h
press.,
hPa
HPBL,
m
14 april, wed
wed1400:00+10sse377998 0.0 1020236
03:00+8se348985 0.0 101955
06:00+8se3588100 0.0 1019143
09:00+10sse3575100 0.0 1019363
12:00+13se3364100 0.0 1017947
15:00+14e5461100 0.1 10161009
18:00+12ese347264 0.3 1015384
21:00+10se228298 0.3 101525
15 april, thu
thu1500:00+9sse2285100 0.1 101466
03:00+9wsw118792 0.2 101415
06:00+7sse339173 0.0 101342
09:00+10sse4668100 0.0 1014510
12:00+14sse5757100 0.1 10121564
15:00+13ssw556196 0.6 10121120
18:00+9ssw4688100 4.3 1012442
21:00+8ese11917 4.3 101214
16 april, fri
fri1600:00+8ese489090 0.0 1012210
03:00+7sse379180 0.0 1012209
06:00+6se489417 0.0 1013320
09:00+7se5787100 0.0 1014747
12:00+8se578677 0.1 1014637
15:00+10sse5774100 0.4 1015836
18:00+9s4781100 0.1 1016608
21:00+8sse248898 0.1 1017192
17 april, sat
sat1700:00+7se2388100 0.1 1017126
03:00+7ssw119055 0.2 101821
06:00+7ene0190100 0.1 101915
09:00+8wnw2283100 0.1 1019271
12:00+12wnw3363100 0.3 10191277
15:00+12wnw4557100 0.6 10191339
18:00+10nw3572100 0.3 1019629
21:00+9sw3682100 0.4 1019283
18 april, sun
sun1800:00+8sw5988100 1.9 1019431
03:00+7ssw5987100 5.8 1018583
06:00+6se4793100 10.0 1019643
09:00+7ese4691100 16.9 1021581
12:00+9s2373100 2.3 1022641
15:00+13w116065 2.4 10211054
18:00+12nne236524 0.8 1021689
21:00+8ne34815 0.9 102257